Tracking 29892 objects as of 21-Nov-2024
HD Live streaming from Space Station
objects crossing your sky now

CZ-6A DEB

Track CZ-6A DEB now!
10-day predictions


NORAD ID: 54511
Int'l Code: 2022-151JP
Perigee: 825.6 km
Apogee: 1,016.6 km
Inclination: 98.8 °
Period: 103.3 minutes
Semi major axis: 7292 km
RCS: Unknown
Launch date: November 11, 2022
Source: People's Republic of China (PRC)
Launch site: Taiyaun Space Center, China (TSC)

Note: This is SATELLITE DEBRIS
Your satellite tracking list
Your tracking list is empty




NASA's NSSDC Master Catalog

Two Line Element Set (TLE):
1 54511U 22151JP  24325.91314734  .00000362  00000-0  28419-3 0  9993
2 54511  98.8423 306.4890 0130949 228.6169 130.3675 13.94196067102804
Source of the keplerian elements: AFSPC